CW9476 Weather Reports


Display with metric or nautical units.
time (UTC)temp
F
wind
direction
speed
MPH
gust
MPH
rain 1hr
in
rain 24hr
in
rain mn
in
humidity
%
barometer
mb
20260506153118 60 214 0.0 6.0 0.05 0.08 0.08 90 1008.3
20260506152618 60 186 2.0 5.0 0.05 0.08 0.08 90 1008.3
20260506152118 60 191 4.0 5.0 0.05 0.07 0.07 90 1008.4
20260506151618 60 200 1.0 4.0 0.05 0.07 0.07 89 1008.4
20260506151118 60 192 3.0 4.0 0.04 0.06 0.06 89 1008.5
20260506150617 60 237 1.0 3.0 0.05 0.06 0.06 89 1008.4
20260506150118 60 220 1.0 3.0 0.05 0.06 0.06 89 1008.4
20260506145118 61 217 3.0 4.0 0.04 0.05 0.05 88 1008.7
20260506144617 61 184 0.0 3.0 0.04 0.04 0.04 88 1008.8
20260506144118 61 219 0.0 3.0 0.04 0.04 0.04 88 1008.7
20260506143617 61 194 1.0 3.0 0.04 0.04 0.04 87 1009.0
20260506143118 61 194 1.0 3.0 0.03 0.03 0.03 87 1009.0
20260506142617 61 194 0.0 3.0 0.03 0.03 0.03 87 1008.9
20260506142117 61 187 1.0 3.0 0.02 0.02 0.02 87 1008.9
20260506140117 61 166 0.0 3.0 0.01 0.01 0.01 86 1009.0
20260506135617 61 166 0.0 3.0 0.01 0.01 0.01 86 1009.2
20260506135117 61 216 3.0 3.0 0.01 0.01 0.01 85 1009.3
20260506134617 61 171 0.0 4.0 0.00 0.00 0.00 85 1009.3
20260506133617 61 200 0.0 3.0 0.00 0.00 0.00 85 1009.3
20260506133117 61 176 2.0 3.0 0.00 0.00 0.00 85 1009.4
20260506132617 61 245 0.0 3.0 0.00 0.00 0.00 85 1009.5
20260506132117 61 221 0.0 3.0 0.00 0.00 0.00 85 1009.4
20260506131617 61 200 0.0 3.0 0.00 0.00 0.00 84 1009.2
20260506130617 61 261 2.0 6.0 0.00 0.00 0.00 84 1009.2
20260506130117 61 248 1.0 6.0 0.00 0.00 0.00 84 1009.0
20260506125617 61 159 6.0 6.0 0.00 0.00 0.00 84 1009.0
20260506125116 61 219 1.0 5.0 0.00 0.00 0.00 84 1008.8
20260506124616 62 217 0.0 5.0 0.00 0.00 0.00 83 1008.9
20260506124116 62 203 0.0 5.0 0.00 0.00 0.00 83 1009.0
20260506123616 62 262 1.0 5.0 0.00 0.00 0.00 83 1009.0
20260506123116 62 311 2.0 8.0 0.00 0.00 0.00 82 1009.2
20260506122616 62 234 1.0 8.0 0.00 0.00 0.00 82 1009.3
20260506121616 62 217 2.0 4.0 0.00 0.00 0.00 81 1009.2
20260506121116 62 250 0.0 3.0 0.00 0.00 0.00 81 1009.4
20260506120616 62 165 0.0 4.0 0.00 0.00 0.00 80 1009.5
20260506120116 62 198 1.0 5.0 0.00 0.00 0.00 80 1009.3
20260506115116 62 224 1.0 4.0 0.00 0.00 0.00 80 1009.3
20260506114116 62 185 0.0 5.0 0.00 0.00 0.00 79 1009.4
20260506113616 62 249 2.0 5.0 0.00 0.00 0.00 79 1009.4
20260506112616 62 214 1.0 5.0 0.00 0.00 0.00 79 1009.5
20260506112116 62 167 1.0 5.0 0.00 0.00 0.00 79 1009.5
20260506111616 62 196 1.0 5.0 0.00 0.00 0.00 79 1009.5
20260506110616 62 224 1.0 5.0 0.00 0.00 0.00 79 1009.1
20260506110116 62 180 1.0 5.0 0.00 0.00 0.00 79 1008.9
20260506105616 62 254 2.0 4.0 0.00 0.00 0.00 78 1008.9
20260506105116 62 207 0.0 5.0 0.00 0.00 0.00 78 1009.0
20260506104116 62 88 2.0 7.0 0.00 0.00 0.00 78 1008.9
20260506103616 62 184 1.0 7.0 0.00 0.00 0.00 77 1008.8
20260506103115 62 190 2.0 2.0 0.00 0.00 0.00 77 1008.9
20260506102615 62 142 1.0 3.0 0.00 0.00 0.00 77 1009.0
20260506102116 62 219 0.0 3.0 0.00 0.00 0.00 76 1009.0
20260506101615 62 213 1.0 3.0 0.00 0.00 0.00 76 1009.1
20260506101115 62 238 2.0 6.0 0.00 0.00 0.00 76 1009.3
20260506100616 62 229 1.0 6.0 0.00 0.00 0.00 76 1009.1
20260506095615 62 298 3.0 5.0 0.00 0.00 0.00 75 1009.2
20260506095116 62 243 2.0 5.0 0.00 0.00 0.00 75 1009.2
20260506094615 62 206 0.0 4.0 0.00 0.00 0.00 75 1009.2
20260506094115 62 207 2.0 4.0 0.00 0.00 0.00 74 1009.1
20260506093615 62 211 3.0 4.0 0.00 0.00 0.00 74 1009.0
20260506090616 62 177 2.0 4.0 0.00 0.00 0.00 72 1009.3
20260506090115 62 202 2.0 4.0 0.00 0.00 0.00 72 1009.3
20260506085615 62 237 2.0 5.0 0.00 0.00 0.00 72 1009.5
20260506085115 62 207 2.0 5.0 0.00 0.00 0.00 71 1009.3
20260506084615 62 219 0.0 2.0 0.00 0.00 0.00 71 1009.4
20260506084115 62 193 1.0 2.0 0.00 0.00 0.00 71 1009.3
20260506083615 62 217 1.0 3.0 0.00 0.00 0.00 71 1009.3
20260506083115 62 190 1.0 3.0 0.00 0.00 0.00 70 1009.3
20260506082615 62 209 1.0 4.0 0.00 0.00 0.00 70 1009.3
20260506082115 62 215 1.0 4.0 0.00 0.00 0.00 70 1009.3
20260506081615 62 201 1.0 3.0 0.00 0.00 0.00 70 1009.3
20260506081115 63 215 0.0 3.0 0.00 0.00 0.00 69 1009.4
20260506080615 63 190 0.0 3.0 0.00 0.00 0.00 69 1009.4
20260506080115 63 221 1.0 4.0 0.00 0.00 0.00 69 1009.4
20260506073114 63 339 1.0 3.0 0.00 0.00 0.00 67 1009.8
20260506072614 63 220 0.0 2.0 0.00 0.00 0.00 67 1009.8
20260506072114 64 177 0.0 2.0 0.00 0.00 0.00 66 1009.8
20260506071614 64 211 0.0 3.0 0.00 0.00 0.00 66 1009.8
20260506071114 64 211 1.0 3.0 0.00 0.00 0.00 66 1009.9
20260506070614 64 215 0.0 4.0 0.00 0.00 0.00 66 1009.9
20260506062114 65 242 0.0 6.0 0.00 0.00 0.00 63 1010.4
20260506061614 65 154 2.0 6.0 0.00 0.00 0.00 63 1010.4
20260506061114 65 178 1.0 4.0 0.00 0.00 0.00 63 1010.4
20260506060614 65 229 2.0 8.0 0.00 0.00 0.00 63 1010.5
20260506060114 65 209 4.0 8.0 0.00 0.00 0.00 63 1010.4
20260506051114 66 190 0.0 4.0 0.00 0.00 0.00 60 1010.8
20260506050114 66 230 4.0 5.0 0.00 0.00 0.00 59 1010.8
20260506045113 66 225 0.0 5.0 0.00 0.00 0.00 59 1010.8
20260506044613 67 331 1.0 5.0 0.00 0.00 0.00 58 1010.8
20260506044114 67 204 2.0 5.0 0.00 0.00 0.00 58 1010.8
20260506043613 67 209 4.0 5.0 0.00 0.00 0.00 58 1010.8
20260506042613 67 207 1.0 4.0 0.00 0.00 0.00 58 1010.9
20260506042113 67 185 2.0 5.0 0.00 0.00 0.00 57 1010.8
20260506041614 67 215 2.0 5.0 0.00 0.00 0.00 57 1010.8
20260506041114 67 180 1.0 4.0 0.00 0.00 0.00 57 1010.8
20260506040613 67 69 0.0 3.0 0.00 0.00 0.00 56 1010.8
20260506040113 67 250 1.0 4.0 0.00 0.00 0.00 56 1010.7
20260506034613 67 238 1.0 4.0 0.00 0.00 0.00 56 1010.7
20260506034113 67 253 2.0 5.0 0.00 0.00 0.00 56 1010.6
20260506033613 68 272 3.0 5.0 0.00 0.00 0.00 55 1010.7
20260506033113 68 204 0.0 4.0 0.00 0.00 0.00 55 1010.8
20260506032613 68 235 0.0 4.0 0.00 0.00 0.00 55 1010.7
20260506032113 68 241 1.0 5.0 0.00 0.00 0.00 55 1010.7
20260506031613 68 233 3.0 7.0 0.00 0.00 0.00 54 1010.7
20260506031113 69 131 5.0 7.0 0.00 0.00 0.00 54 1010.8
20260506030613 69 223 1.0 5.0 0.00 0.00 0.00 54 1010.9
20260506030113 69 221 1.0 6.0 0.00 0.00 0.00 53 1010.7
20260506025613 69 302 1.0 6.0 0.00 0.00 0.00 53 1010.8
20260506025113 69 36 2.0 6.0 0.00 0.00 0.00 53 1010.7
20260506023613 70 227 1.0 5.0 0.00 0.00 0.00 51 1010.8
20260506023113 70 217 3.0 4.0 0.00 0.00 0.00 50 1010.8
20260506022613 70 183 3.0 4.0 0.00 0.00 0.00 49 1010.8
20260506021613 70 207 0.0 6.0 0.00 0.00 0.00 48 1010.9
20260506021113 71 254 2.0 6.0 0.00 0.00 0.00 48 1010.9
20260506020613 71 217 2.0 6.0 0.00 0.00 0.00 48 1010.9
20260506020113 71 208 2.0 6.0 0.00 0.00 0.00 48 1010.9
20260506015612 71 233 1.0 7.0 0.00 0.00 0.00 47 1010.5
20260506015113 71 236 1.0 7.0 0.00 0.00 0.00 47 1010.6
20260506014613 71 202 4.0 4.0 0.00 0.00 0.00 47 1010.5
20260506014112 71 211 2.0 4.0 0.00 0.00 0.00 47 1010.5
20260506013613 71 211 1.0 4.0 0.00 0.00 0.00 46 1010.4
20260506013112 72 209 1.0 5.0 0.00 0.00 0.00 46 1010.6
20260506012612 72 205 0.0 5.0 0.00 0.00 0.00 47 1010.4
20260506012112 72 244 1.0 5.0 0.00 0.00 0.00 46 1010.3
20260506011612 72 205 4.0 10.0 0.00 0.00 0.00 46 1010.2
20260506011112 72 252 2.0 10.0 0.00 0.00 0.00 46 1010.1
20260506010612 72 194 1.0 10.0 0.00 0.00 0.00 45 1010.1
20260506010112 72 219 4.0 7.0 0.00 0.00 0.00 46 1010.1
20260506005612 72 268 1.0 3.0 0.00 0.00 0.00 46 1009.9
20260506005112 72 210 1.0 4.0 0.00 0.00 0.00 46 1009.7
20260506004612 72 215 1.0 4.0 0.00 0.00 0.00 45 1009.7
20260506004112 72 257 0.0 4.0 0.00 0.00 0.00 45 1009.6
20260506003612 72 78 2.0 13.0 0.00 0.00 0.00 45 1009.5
20260506002612 73 221 5.0 5.0 0.00 0.00 0.00 46 1009.5
20260506002112 73 151 1.0 5.0 0.00 0.00 0.00 46 1009.5
20260506001612 73 252 0.0 11.0 0.00 0.00 0.00 45 1009.5
20260506001112 73 86 2.0 11.0 0.00 0.00 0.00 46 1009.5
20260506000612 73 215 3.0 7.0 0.00 0.00 0.00 45 1009.5
20260506000112 73 238 1.0 4.0 0.00 0.00 0.00 46 1009.5
20260505235612 73 181 1.0 5.0 0.00 0.00 0.00 46 1009.4
20260505235112 73 250 1.0 5.0 0.00 0.00 0.00 45 1009.3
20260505234612 73 223 1.0 4.0 0.00 0.00 0.00 45 1009.3
20260505234112 73 213 1.0 5.0 0.00 0.00 0.00 45 1009.2
20260505233112 74 227 3.0 5.0 0.00 0.00 0.00 44 1009.3
20260505232612 74 223 2.0 5.0 0.00 0.00 0.00 45 1009.4
20260505232111 74 194 1.0 5.0 0.00 0.00 0.00 44 1009.3
20260505231611 74 200 1.0 5.0 0.00 0.00 0.00 44 1009.3
20260505231112 74 244 0.0 5.0 0.00 0.00 0.00 44 1009.3
20260505230611 74 230 3.0 5.0 0.00 0.00 0.00 43 1009.0
20260505225611 75 190 2.0 6.0 0.00 0.00 0.00 43 1008.9
20260505225111 75 211 1.0 6.0 0.00 0.00 0.00 42 1009.0
20260505224611 75 205 2.0 6.0 0.00 0.00 0.00 42 1008.9
20260505223611 75 174 3.0 9.0 0.00 0.00 0.00 41 1008.7
20260505223111 75 219 1.0 7.0 0.00 0.00 0.00 41 1008.8
20260505222611 75 171 6.0 8.0 0.00 0.00 0.00 42 1008.8
20260505222111 75 273 2.0 8.0 0.00 0.00 0.00 41 1008.7
20260505221111 76 226 7.0 13.0 0.00 0.00 0.00 41 1008.8
20260505220611 76 291 1.0 10.0 0.00 0.00 0.00 41 1008.8
20260505220111 76 237 4.0 9.0 0.00 0.00 0.00 41 1008.7
20260505215611 76 247 5.0 7.0 0.00 0.00 0.00 41 1008.6
20260505215111 76 254 1.0 7.0 0.00 0.00 0.00 41 1008.7
20260505214611 77 268 1.0 9.0 0.00 0.00 0.00 40 1008.7
20260505214111 77 196 4.0 11.0 0.00 0.00 0.00 39 1008.6
20260505213611 77 109 4.0 11.0 0.00 0.00 0.00 39 1008.4
20260505213111 77 331 1.0 7.0 0.00 0.00 0.00 39 1008.2
20260505212611 78 241 0.0 5.0 0.00 0.00 0.00 36 1008.2
20260505211611 78 292 3.0 9.0 0.00 0.00 0.00 34 1008.1
20260505211111 78 250 2.0 9.0 0.00 0.00 0.00 34 1008.1
20260505210611 78 115 2.0 10.0 0.00 0.00 0.00 33 1008.0
20260505210111 78 258 3.0 10.0 0.00 0.00 0.00 33 1008.1
20260505205610 78 155 2.0 10.0 0.00 0.00 0.00 32 1008.0
20260505205111 78 222 3.0 11.0 0.00 0.00 0.00 32 1008.0
20260505204611 78 248 4.0 11.0 0.00 0.00 0.00 33 1007.9
20260505204110 78 203 5.0 13.0 0.00 0.00 0.00 32 1008.1
20260505203610 78 219 5.0 13.0 0.00 0.00 0.00 33 1008.1
20260505203110 78 211 13.0 13.0 0.00 0.00 0.00 33 1008.1
20260505202610 79 215 5.0 13.0 0.00 0.00 0.00 32 1008.0
20260505202110 79 360 4.0 13.0 0.00 0.00 0.00 31 1008.0
20260505201610 80 224 2.0 8.0 0.00 0.00 0.00 32 1007.9
20260505201110 80 67 1.0 9.0 0.00 0.00 0.00 32 1008.1
20260505200610 80 257 2.0 12.0 0.00 0.00 0.00 31 1008.3
20260505195610 80 107 2.0 10.0 0.00 0.00 0.00 32 1008.3
20260505194610 80 137 3.0 11.0 0.00 0.00 0.00 31 1008.6
20260505193610 81 226 3.0 12.0 0.00 0.00 0.00 31 1008.8
20260505193110 80 294 4.0 12.0 0.00 0.00 0.00 33 1008.8
20260505192610 80 242 3.0 11.0 0.00 0.00 0.00 32 1008.7
20260505192110 80 323 10.0 11.0 0.00 0.00 0.00 31 1008.7
20260505191610 80 174 1.0 9.0 0.00 0.00 0.00 34 1008.6
20260505191110 79 173 3.0 9.0 0.00 0.00 0.00 35 1008.6
20260505190610 80 282 6.0 9.0 0.00 0.00 0.00 35 1008.8
20260505190110 80 217 8.0 9.0 0.00 0.00 0.00 34 1009.0
20260505185610 80 215 5.0 9.0 0.00 0.00 0.00 35 1008.9
20260505185110 79 213 4.0 10.0 0.00 0.00 0.00 35 1008.9
20260505184610 79 210 6.0 10.0 0.00 0.00 0.00 36 1009.0
20260505182610 80 46 4.0 10.0 0.00 0.00 0.00 35 1009.5
20260505182110 80 149 6.0 12.0 0.00 0.00 0.00 35 1009.4
20260505181610 80 218 6.0 15.0 0.00 0.00 0.00 36 1009.4
20260505181109 80 165 2.0 15.0 0.00 0.00 0.00 36 1009.4
20260505180610 80 257 3.0 9.0 0.00 0.00 0.00 38 1009.6
20260505180109 79 306 2.0 9.0 0.00 0.00 0.00 38 1009.5
20260505175109 79 246 5.0 14.0 0.00 0.00 0.00 38 1009.7
20260505174609 79 240 3.0 10.0 0.00 0.00 0.00 39 1009.6
20260505174109 79 254 4.0 10.0 0.00 0.00 0.00 39 1009.5
20260505173609 79 219 3.0 10.0 0.00 0.00 0.00 38 1009.6
20260505173109 79 156 2.0 9.0 0.00 0.00 0.00 41 1009.7
20260505172609 79 167 5.0 9.0 0.00 0.00 0.00 41 1009.8
20260505172109 79 273 2.0 8.0 0.00 0.00 0.00 40 1009.7
20260505171609 79 252 4.0 10.0 0.00 0.00 0.00 40 1009.7
20260505171109 79 302 2.0 10.0 0.00 0.00 0.00 39 1009.9
20260505170609 80 320 5.0 11.0 0.00 0.00 0.00 39 1009.8
20260505170109 80 217 3.0 11.0 0.00 0.00 0.00 40 1009.8
20260505165109 79 263 3.0 6.0 0.00 0.00 0.00 42 1010.1
20260505164609 79 178 1.0 9.0 0.00 0.00 0.00 43 1010.1
20260505164109 79 269 2.0 9.0 0.00 0.00 0.00 43 1010.1
20260505163109 78 220 3.0 8.0 0.00 0.00 0.00 44 1010.4
20260505162609 78 220 2.0 7.0 0.00 0.00 0.00 46 1010.4
20260505162108 78 267 2.0 7.0 0.00 0.00 0.00 45 1010.6
20260505161609 77 195 2.0 7.0 0.00 0.00 0.00 45 1010.6
20260505161109 77 221 3.0 9.0 0.00 0.00 0.00 46 1010.6
20260505160609 77 239 2.0 9.0 0.00 0.00 0.00 45 1010.8
20260505160108 77 192 2.0 10.0 0.00 0.00 0.00 46 1010.9